Weather History for White Plains, NY

Change the Weather History Date:

Monday, March 11, 2013

  Actual Average Record
Temperature  
Mean Temperature 43 °F -  
Max Temperature 51 °F 41 °F 68 °F (1977)
Min Temperature 36 °F 26 °F 11 °F (1987)
Degree Days  
Heating Degree Days 22    
Moisture  
Dew Point 38 °F    
Average Humidity 81    
Maximum Humidity 90    
Minimum Humidity 68    
Precipitation  
Precipitation 0.00 in - - ()
Sea Level Pressure  
Sea Level Pressure 30.21 in    
Wind  
Wind Speed 5 mph (SE)    
Max Wind Speed 14 mph    
Max Gust Speed 17 mph    
Visibility 8 miles    
Events      
Averages and records for this station are not official NWS values.
T = Trace of Precipitation, MM = Missing Value Source: NWS Daily Summary

Daily Weather History Graph

Daily Weather History Graph

Search for Another Location

Airport:

Trip Planner

Search our weather history database for the weather conditions in past years. The results will help you decide how hot, cold, wet, or windy it might be!

Date:

Astronomy

Mar. 11, 2013 Rise Set
Actual Time 7:12 AM EDT 6:57 PM EDT
Civil Twilight 6:45 AM EDT 7:24 PM EDT
Nautical Twilight 6:13 AM EDT 7:56 PM EDT
Astronomical Twilight 5:41 AM EDT 8:28 PM EDT
Moon 6:44 AM EDT (3/11) 7:07 PM EDT (3/11)
Length of Visible Light 12h 39m
Length of Day
11h 44m
Waning Crescent, 0% of the Moon is Illuminated
Mar 11
Waning Crescent
Mar 11
New
Mar 19
First Quarter
Mar 27
Full
Apr 3
Last Quarter

Hourly Weather History & Observations

Time (EDT) Temp. Windchill Dew Point Humidity Pressure Visibility Wind Dir Wind Speed Gust Speed Precip Events Conditions
12:56 AM 36.0 °F - 32.0 °F 86% 30.32 in 10.0 mi Calm Calm - N/A   Partly Cloudy
1:56 AM 36.0 °F 32.1 °F 32.0 °F 86% 30.30 in 10.0 mi SE 4.6 mph - N/A   Overcast
2:56 AM 37.0 °F - 33.1 °F 86% 30.29 in 10.0 mi Calm Calm - N/A   Clear
4:56 AM 37.0 °F 34.5 °F 33.1 °F 86% 30.26 in 8.0 mi ESE 3.5 mph - N/A   Clear
5:56 AM 37.0 °F - 34.0 °F 89% 30.26 in 9.0 mi Calm Calm - N/A   Clear
6:28 AM 37.4 °F 33.8 °F 33.8 °F 87% 30.23 in 9.0 mi ESE 4.6 mph - N/A   Overcast
6:56 AM 37.0 °F 34.5 °F 33.1 °F 86% 30.26 in 9.0 mi ESE 3.5 mph - N/A   Overcast
7:56 AM 37.9 °F 35.5 °F 34.0 °F 86% 30.25 in 6.0 mi Variable 3.5 mph - N/A   Overcast
8:56 AM 39.0 °F 35.7 °F 35.1 °F 86% 30.26 in 5.0 mi East 4.6 mph - N/A   Overcast
9:56 AM 41.0 °F 37.1 °F 37.0 °F 86% 30.26 in 6.0 mi SSE 5.8 mph - N/A   Overcast
10:56 AM 44.1 °F 40.8 °F 37.9 °F 79% 30.27 in 6.0 mi SE 5.8 mph - N/A   Haze
11:33 AM 46.4 °F 42.4 °F 39.2 °F 76% 30.22 in 7.0 mi SE 8.1 mph - N/A   Mostly Cloudy
11:56 AM 46.9 °F - 39.0 °F 74% 30.23 in 8.0 mi South 10.4 mph - N/A   Mostly Cloudy
12:56 PM 48.9 °F - 39.9 °F 71% 30.22 in 7.0 mi South 8.1 mph 16.1 mph N/A   Mostly Cloudy
1:56 PM 50.0 °F - 39.9 °F 68% 30.20 in 10.0 mi South 9.2 mph - N/A   Scattered Clouds
2:56 PM 50.0 °F - 39.9 °F 68% 30.18 in 10.0 mi SSE 9.2 mph - N/A   Clear
3:56 PM 50.0 °F - 39.9 °F 68% 30.17 in 10.0 mi SSE 9.2 mph - N/A   Mostly Cloudy
4:56 PM 48.9 °F - 39.9 °F 71% 30.16 in 10.0 mi SSE 9.2 mph - N/A   Mostly Cloudy
5:56 PM 48.9 °F - 42.1 °F 77% 30.15 in 10.0 mi SSE 13.8 mph 17.3 mph N/A   Mostly Cloudy
6:56 PM 48.0 °F - 42.1 °F 80% 30.14 in 7.0 mi SSE 9.2 mph - N/A   Overcast
7:56 PM 46.9 °F - 42.1 °F 83% 30.13 in 7.0 mi ESE 9.2 mph - N/A   Overcast
8:56 PM 46.9 °F - 43.0 °F 86% 30.14 in 10.0 mi SE 6.9 mph - N/A   Overcast
9:56 PM 46.9 °F - 44.1 °F 90% 30.12 in 9.0 mi SE 10.4 mph - N/A   Overcast
10:56 PM 46.9 °F - 44.1 °F 90% 30.11 in 8.0 mi SE 6.9 mph - N/A   Overcast
11:56 PM 48.0 °F - 45.0 °F 89% 30.11 in 9.0 mi SSE 5.8 mph - N/A   Overcast